Back to catalog

THORAD DELTA 1 DEB

AliveSSO
NORAD 8788·DEBRIS·🇺🇸 United States

Launched Nov 15, 1974 from Vandenberg Space Force Base

Loading…

Next Passes (next 24 hours)

TLE

FreshSource: Space-Track

Epoch: Sep 14, 2026, 12:29 UTC

1 08788U 74089DQ  26257.52016475  .00000071  00000-0  86839-3 0  9996
2 08788 102.0950 356.3923 0070768 279.6686 147.4899 12.39849576346215

Track THORAD DELTA 1 DEB in real time with AllMySat

Download on the App Store